OE-2100 Weather Reports


time (UTC)temp
F
wind
direction
speed
knots
gust
knots
rain 1hr
in
rain 24hr
in
rain mn
in
humidity
%
barometer
mb
20260903071108 69 70 1.7 3.5 0.00 0.00 0.00 69 1021.4
20260903064107 67 66 1.7 2.6 0.00 0.00 0.00 71 1021.6
20260903061108 65 132 0.9 3.5 0.00 0.00 0.00 70 1021.9
20260903054107 63 129 1.7 3.5 0.00 0.00 0.00 70 1022.2
20260903051108 64 170 1.7 3.5 0.00 0.00 0.00 65 1022.0
20260903044107 64 179 2.6 3.5 0.00 0.00 0.00 65 1022.0
20260903041107 63 147 2.6 5.2 0.00 0.00 0.00 67 1022.1
20260903031108 63 268 1.7 4.3 0.00 0.00 0.00 69 1022.2
20260903021107 64 279 1.7 5.2 0.00 0.00 0.00 64 1021.0
20260903014107 65 140 3.5 7.0 0.00 0.00 0.00 61 1020.8
20260903011108 66 142 3.5 6.1 0.00 0.00 0.00 61 1020.7
20260903004108 65 138 3.5 6.1 0.00 0.00 0.00 65 1020.8
20260903001507 66 143 3.5 5.2 0.00 0.00 0.00 65 1020.7
20260902234108 65 139 2.6 6.1 0.00 0.00 0.00 69 1021.9
20260902224108 65 209 1.7 3.5 0.00 0.00 0.00 70 1020.9
20260902221108 65 203 1.7 3.5 0.00 0.00 0.00 70 1020.9
20260902214108 66 227 1.7 4.3 0.00 0.00 0.00 68 1020.7
20260902211108 66 231 1.7 4.3 0.00 0.00 0.00 67 1020.7
20260902204109 67 204 1.7 3.5 0.00 0.00 0.00 65 1020.5
20260902201108 67 215 1.7 2.6 0.00 0.00 0.00 65 1020.5
20260902194108 68 217 1.7 3.5 0.00 0.00 0.00 64 1020.4
20260902191108 69 187 2.6 3.5 0.00 0.00 0.00 61 1020.3
20260902184108 69 208 3.5 5.2 0.00 0.00 0.00 62 1019.2
20260902181108 69 223 4.3 6.1 0.00 0.00 0.00 61 1019.1
20260902174108 70 244 4.3 6.1 0.00 0.00 0.00 61 1019.1
20260902171108 70 257 3.5 5.2 0.00 0.00 0.00 60 1019.0
20260902164108 71 276 3.5 7.8 0.00 0.00 0.00 59 1018.9
20260902161108 72 292 5.2 11.3 0.00 0.00 0.00 58 1018.8
20260902154108 72 292 6.1 10.4 0.00 0.00 0.00 57 1018.7
20260902151108 73 294 5.2 10.4 0.00 0.00 0.00 56 1018.7
20260902144108 73 294 5.2 9.6 0.00 0.00 0.00 55 1018.6
20260902141108 73 301 6.1 13.0 0.00 0.00 0.00 55 1018.6
20260902134107 72 295 7.0 12.2 0.00 0.00 0.00 55 1018.7
20260902131108 72 295 7.0 12.2 0.00 0.00 0.00 54 1018.8
20260902124107 71 296 7.8 13.0 0.00 0.00 0.00 55 1019.9
20260902121108 71 297 7.8 13.0 0.00 0.00 0.00 56 1019.9
20260902114108 72 295 6.1 12.2 0.00 0.00 0.00 57 1019.8
20260902111108 72 303 3.5 9.6 0.00 0.00 0.00 58 1019.9
20260902104108 75 349 2.6 6.1 0.00 0.00 0.00 54 1019.4
20260902101108 74 357 3.5 7.0 0.00 0.00 0.00 54 1019.5
20260902094108 74 360 2.6 7.0 0.00 0.00 0.00 56 1020.6
20260902091107 72 19 2.6 5.2 0.00 0.00 0.00 62 1020.9
20260902084107 70 55 1.7 6.1 0.00 0.00 0.00 65 1021.2
20260902081107 68 37 1.7 6.1 0.00 0.00 0.00 68 1021.4
20260902074108 67 51 2.6 7.0 0.00 0.00 0.00 70 1020.6